RADUGA 24 [-]

Last updated on Aug. 14, 2020, 5:30 a.m. UTC

1 20367U 89098A   20225.96290414  .00000093  00000-0  00000-0 0  9990
2 20367  14.6707 350.9107 0002028  27.5744 340.0573  1.00235422111577
UTC
Height (km)
Latitude
Longitude
Inclination
Orbital Period
UTC large
Height (km)
Speed (km/s)
/
Latitude / Longitude
Inclination (degrees)
Orbital Period (minutes)
Azimuth
Elevation
Range (km)
Doppler Factor
iOS Compass Heading
iOS Angle

Next 30 passes for location: Hong Kong

Rise time Rise Azimuth (degrees) Set time Set Azimuth (degrees) Duration Max altitude (degrees)

No matching passes for this satellites